Location: Klickitat County Star Party
(45.8642°N, 120.6771°W)
Time: 16:19:34
(UTC-07:00)

Envisat - Visible Passes

Search period start: 24 March 2019 00:00
Search period end: 03 April 2019 00:00
Orbit: 764 x 766 km, 98.2° (Epoch: 24 March)

Date Brightness Start Highest point End Pass type
(mag) Time Alt. Az. Time Alt. Az. Time Alt. Az.
24 Mar 5.0 20:26:52 10° SSW 20:31:19 30° W 20:35:49 10° NNW visible
25 Mar 3.6 19:49:22 10° S 19:54:24 65° WSW 19:59:28 10° NNW visible
26 Mar 5.8 20:53:39 10° SW 20:57:07 18° W 21:00:35 10° NW visible
27 Mar 4.6 20:15:20 10° SSW 20:20:02 38° W 20:24:46 10° NNW visible
28 Mar 6.3 21:22:21 10° W 21:23:00 10° W 21:23:40 10° WNW visible
29 Mar 5.5 20:41:49 10° SW 20:45:47 23° W 20:49:45 10° NW visible
30 Mar 4.2 20:03:53 10° S 20:08:46 47° W 20:13:41 10° NNW visible
31 Mar 6.0 21:09:14 10° WSW 21:11:37 13° W 21:14:01 10° WNW visible
01 Apr 5.2 20:30:07 10° SSW 20:34:27 28° W 20:38:49 10° NW visible
